Wind_Speed
65 66 68 68 67 68 70 72 74 75 75 77 81 83 85 85 83 81 80 78 77 77 76 74 73 73 73 71 70 72 76 73 66 66 66 62 62 63 58 56 57 57 59 59 56 55 54 52 49 48 48 47 46 44 43 42 41 40 37 33 28 24 23 24 25 25 24 23 23 24 25 24 22 21 20 19 17 15 14 13 14 15 17 18 19 19 19 19
63 62 65 68 68 68 69 71 73 74 75 76 78 82 84 86 86 84 82 80 79 78 78 76 74 73 73 73 71 71 74 78 74 66 63 63 63 64 59 54 56 57 59 60 58 56 54 52 50 48 48 49 48 45 44 44 43 42 39 34 28 26 26 27 26 26 25 23 21 23 24 23 23 22 22 21 19 18 16 15 14 15 16 17 18 20 20 20
61 59 63 68 69 69 69 70 72 74 75 75 77 80 83 85 86 86 84 82 81 79 79 78 76 74 74 74 73 72 73 77 80 71 61 61 62 64 62 56 55 56 58 60 59 58 56 52 50 49 49 49 49 48 46 46 45 44 42 34 27 27 29 29 28 26 26 23 21 21 22 23 23 23 23 22 21 20 18 16 16 16 16 16 17 20 21 21
59 59 61 66 68 69 69 69 70 73 75 76 76 78 81 83 85 87 86 84 83 81 80 79 78 75 74 75 74 73 73 76 80 76 67 62 58 63 66 61 57 57 59 60 60 59 56 53 51 51 51 50 49 49 48 47 46 46 43 33 27 30 31 30 30 28 26 24 22 21 21 22 22 23 23 23 23 22 19 18 17 16 17 17 17 19 22 22
58 60 62 64 65 67 69 70 70 72 74 76 76 76 79 82 84 87 88 87 85 83 82 80 79 77 75 75 76 74 74 77 78 76 74 69 60 60 67 65 59 57 57 60 61 60 58 54 50 52 53 52 50 50 50 48 48 47 43 35 32 33 31 31 32 30 28 25 24 23 22 23 22 22 22 23 24 22 21 20 18 17 17 17 17 18 21 23
60 61 63 64 64 66 68 70 71 72 74 76 77 76 77 81 83 86 88 88 87 85 83 82 80 78 76 75 76 77 76 77 78 74 75 76 69 62 65 67 62 57 54 57 59 58 60 56 50 52 54 54 53 50 50 49 49 48 43 39 37 36 31 31 32 32 30 27 25 24 24 25 22 22 22 23 25 23 22 21 19 18 18 17 18 18 19 21
62 62 63 64 63 64 66 69 71 73 74 76 77 77 77 79 82 84 87 89 89 87 85 83 81 79 77 77 77 79 77 76 76 74 74 76 76 70 66 69 65 57 52 54 57 57 60 57 51 52 54 55 54 51 50 50 51 48 44 42 41 40 35 31 31 32 32 29 27 25 24 24 23 23 23 24 25 23 23 23 21 20 19 19 19 18 18 20
64 63 62 63 62 62 65 66 69 72 74 75 77 78 78 78 81 83 86 89 89 89 87 85 83 80 78 78 77 78 78 74 74 75 74 72 76 76 69 69 68 60 54 52 56 58 58 57 54 53 55 56 55 52 51 51 52 49 45 43 43 44 41 36 32 32 33 31 28 25 24 24 24 23 22 25 25 23 25 24 22 21 20 20 19 19 19 20
65 66 64 61 61 62 65 65 66 70 73 75 77 78 78 78 80 83 85 88 89 89 89 86 84 82 80 78 78 78 76 73 73 76 74 69 73 77 71 70 70 64 58 54 56 58 56 56 57 56 55 56 55 53 52 52 52 48 44 44 45 45 45 43 38 35 35 33 30 27 26 26 26 24 22 26 25 23 25 26 24 23 21 21 20 19 20 20
65 66 65 62 63 65 67 67 66 67 71 74 76 78 78 77 78 81 84 86 89 89 89 88 85 83 81 79 78 77 74 73 75 77 74 68 71 76 73 70 73 69 62 58 57 59 57 55 56 57 56 55 56 55 53 53 51 46 45 46 48 48 47 46 44 41 38 36 33 30 30 29 29 26 23 27 26 24 26 27 26 24 22 22 20 21 20 20
68 65 65 63 65 67 67 68 67 67 69 72 75 77 77 77 76 79 82 84 87 89 89 88 86 84 82 80 79 75 73 74 76 79 76 69 69 74 74 70 74 74 64 60 60 61 59 56 56 57 58 57 56 55 52 53 51 48 47 49 50 51 50 49 47 46 43 41 37 34 33 32 31 26 23 28 28 26 28 28 27 25 23 22 21 21 21 21
72 67 66 66 66 66 66 67 66 65 67 70 73 75 76 76 76 77 80 82 85 87 88 88 86 85 83 82 80 74 74 76 78 81 77 70 69 73 76 71 74 78 68 63 62 61 60 57 58 58 59 59 57 55 53 52 53 51 50 52 52 52 53 51 49 49 48 46 42 39 37 35 30 24 24 31 31 29 29 28 28 27 25 22 22 22 22 21
75 70 70 70 67 65 65 66 66 64 65 68 70 72 73 74 75 76 78 80 83 85 86 87 86 86 85 83 80 75 75 77 80 82 76 71 70 74 78 72 72 80 74 66 62 58 58 59 58 58 58 59 59 57 55 53 54 54 53 53 53 54 54 53 51 50 50 49 45 44 41 35 31 28 30 34 32 31 30 29 29 28 27 24 22 22 23 22
76 72 72 71 67 65 64 65 66 65 65 66 68 69 70 70 72 75 76 78 80 82 83 86 86 86 85 83 80 76 76 79 81 81 77 72 71 75 80 75 71 79 79 71 62 56 58 60 59 59 60 59 60 58 56 55 55 55 55 54 54 56 55 52 51 50 50 50 47 48 44 36 34 34 34 35 33 33 31 30 30 30 29 27 24 23 23 22
75 72 73 72 67 65 65 65 65 65 65 66 66 67 67 67 68 71 74 76 77 79 81 83 85 86 86 83 81 77 77 80 81 80 77 73 72 75 80 79 72 76 81 76 66 59 58 58 57 60 62 61 60 60 58 57 55 54 55 55 55 55 54 51 50 49 48 49 48 50 46 38 36 36 36 37 35 33 31 31 31 31 31 30 27 25 24 23
76 72 72 71 68 66 66 66 66 65 65 66 64 64 64 64 65 67 71 74 74 76 79 81 84 85 86 83 81 79 78 80 79 78 78 74 74 76 79 82 76 74 81 80 71 63 59 56 55 59 62 63 61 60 60 59 57 56 55 55 55 54 52 49 49 48 47 48 48 49 46 39 37 36 36 37 36 35 33 32 32 33 33 33 31 27 25 24
78 73 73 70 67 66 64 65 67 65 64 65 64 62 59 58 60 63 67 72 73 74 76 78 81 83 86 85 82 80 78 78 78 77 77 75 75 77 79 82 80 75 80 85 75 64 60 56 52 56 62 63 61 61 62 62 60 57 55 56 54 52 51 49 49 48 47 47 47 48 45 40 38 37 37 37 38 37 35 34 34 34 35 34 33 30 26 24
80 75 75 72 68 66 64 63 64 64 63 63 62 60 58 58 58 60 64 69 71 73 74 77 81 83 86 86 80 78 77 76 76 73 73 74 74 77 79 81 83 78 78 86 80 69 65 58 49 53 62 64 63 62 61 59 57 55 55 56 54 51 50 50 49 48 47 47 46 47 45 41 39 39 39 38 39 39 38 37 36 35 35 34 33 32 28 25
80 76 76 74 69 66 65 64 63 64 65 63 62 59 59 60 58 58 62 68 72 75 76 79 82 84 85 82 76 76 77 75 74 72 71 72 73 77 80 80 84 82 78 84 83 74 70 64 55 52 57 62 62 62 59 54 54 54 55 57 55 51 50 49 49 48 48 47 47 47 45 41 41 41 41 41 41 41 40 38 36 34 33 33 33 32 31 28
79 76 76 74 69 66 65 65 64 66 67 65 64 62 61 64 62 58 59 65 70 72 73 75 77 80 81 77 73 74 75 75 74 72 69 69 72 76 79 79 84 86 80 81 82 77 74 70 62 53 51 57 59 59 59 56 55 56 57 60 58 54 51 47 47 48 48 49 47 47 46 43 43 44 43 44 45 43 40 38 35 34 33 33 33 32 32 30
80 78 75 72 69 65 64 66 64 65 67 67 67 64 62 64 63 59 55 59 66 68 68 69 70 75 77 74 73 75 76 76 74 71 68 68 72 76 80 80 82 87 84 80 76 74 77 74 61 50 46 54 60 60 60 58 56 56 58 60 59 56 53 48 47 49 49 51 49 47 48 45 43 45 44 47 48 45 41 39 36 35 34 34 33 32 32 33
80 79 75 70 69 66 64 64 63 64 66 67 68 66 59 55 53 52 52 53 58 65 69 70 69 73 74 71 73 76 75 74 72 70 68 68 71 75 79 79 80 86 87 85 77 72 80 77 60 52 48 50 58 59 60 62 58 57 58 60 60 57 53 50 50 50 51 52 50 48 49 46 43 45 47 49 50 46 42 41 38 37 36 35 33 31 32 34
79 78 73 70 69 67 64 63 62 64 68 69 68 66 60 52 48 49 52 53 52 58 65 67 68 71 72 70 71 72 71 68 66 64 64 66 69 72 76 76 77 84 89 91 84 75 81 78 61 57 56 51 54 55 56 59 59 59 59 60 61 57 53 51 51 51 50 51 49 48 50 48 45 47 49 49 49 45 42 42 41 39 37 34 33 32 33 34
78 76 71 68 68 66 63 62 63 65 67 68 66 64 61 56 51 49 51 54 54 55 58 60 64 67 71 71 71 71 70 67 62 58 60 62 65 69 72 71 73 81 85 87 86 75 75 77 67 62 60 54 55 57 54 53 54 57 59 60 60 57 54 52 51 49 49 51 49 48 52 50 46 48 48 47 48 46 43 44 43 41 38 35 34 33 32 33
77 75 69 65 66 65 62 63 65 65 64 66 66 63 61 59 54 50 49 52 55 58 59 60 62 64 67 68 69 70 69 67 62 57 56 58 61 65 66 67 71 77 78 80 87 79 68 72 76 72 64 55 54 58 58 54 52 55 58 59 57 55 54 53 50 49 50 52 50 49 53 52 46 47 47 46 49 47 45 45 44 41 39 37 35 33 32 33
75 73 69 65 65 65 64 65 65 63 64 65 65 63 62 60 57 53 50 51 54 58 61 63 64 64 66 64 64 66 65 62 60 57 55 55 58 60 60 63 67 69 71 76 85 85 74 69 76 78 69 59 55 56 56 53 54 55 56 58 56 53 55 54 50 50 51 52 51 50 53 53 46 46 47 46 48 47 45 46 45 41 40 38 35 33 33 34
73 71 69 65 65 67 67 66 65 65 65 63 62 62 62 62 60 56 53 55 57 57 59 63 64 64 64 62 60 64 63 58 55 56 55 54 56 58 58 61 63 63 68 74 81 88 85 75 75 82 76 63 59 58 53 49 53 58 58 57 55 53 56 55 50 51 52 52 52 50 52 53 47 43 44 45 47 47 46 45 43 41 41 39 36 34 35 35
71 71 69 66 66 67 66 64 64 64 63 61 60 61 62 62 61 56 55 59 59 57 58 61 62 61 61 61 60 62 62 57 52 52 53 53 54 55 57 58 59 59 64 71 77 84 88 79 73 81 82 70 60 57 52 47 48 55 59 56 53 53 56 53 50 50 51 52 53 50 50 53 48 41 40 44 46 45 43 42 41 42 43 42 38 37 37 37
70 70 69 65 65 66 64 62 62 62 62 60 59 61 62 62 60 56 55 59 60 57 56 58 61 61 60 60 60 60 60 56 52 49 49 52 53 53 55 55 56 58 61 65 70 76 82 80 73 78 86 78 65 56 53 51 46 46 55 57 54 55 55 52 52 52 52 54 53 49 48 52 49 39 36 42 44 41 38 36 39 41 43 43 41 39 40 39
69 70 69 65 65 67 66 62 61 62 62 60 59 59 60 61 60 59 59 61 59 58 56 57 60 61 60 61 61 61 60 55 51 51 51 52 52 51 52 52 54 58 61 64 69 74 78 79 76 79 88 83 71 61 54 53 49 44 50 57 56 57 56 54 55 54 55 57 52 46 45 48 49 38 34 39 39 36 36 35 37 40 43 44 41 39 39 40
67 69 68 65 66 67 66 64 63 62 61 60 61 59 58 59 60 62 65 63 59 57 57 57 59 59 60 61 60 62 61 53 50 53 54 53 53 52 52 53 55 58 62 65 72 76 79 82 78 76 86 88 79 70 58 51 49 46 49 52 52 55 57 55 55 55 57 56 51 46 43 47 49 37 30 33 33 32 35 35 35 38 42 43 40 38 37 37
66 68 67 65 65 64 62 63 63 60 60 61 61 60 59 60 62 62 63 60 59 60 59 57 57 58 58 59 58 60 60 55 53 54 53 54 55 55 54 56 56 58 62 66 71 77 80 84 80 71 76 84 83 77 70 61 54 49 50 51 51 54 56 57 57 55 53 51 49 47 45 48 49 36 26 26 27 28 33 34 34 36 38 40 39 39 38 37
65 68 66 64 64 62 60 61 61 60 62 62 60 59 60 63 65 63 60 57 57 59 57 55 55 55 55 58 58 58 57 54 54 53 52 52 55 56 54 53 53 54 58 63 68 75 81 84 84 75 70 75 81 80 77 75 69 59 53 51 51 53 54 56 56 53 50 49 50 49 47 49 48 36 25 22 22 27 33 34 34 34 35 37 38 39 39 38
65 66 64 62 62 61 61 60 59 61 63 64 61 60 62 64 63 61 59 56 54 53 53 54 54 53 54 56 58 59 57 54 52 53 54 53 54 57 57 54 50 49 53 59 65 74 82 87 88 80 68 65 74 78 75 76 77 72 65 57 52 51 52 53 55 55 53 53 54 53 50 49 47 35 25 22 21 25 31 33 32 32 32 34 36 36 37 36
65 64 63 63 62 61 61 59 59 62 65 64 62 62 63 61 58 59 58 55 53 51 50 51 52 53 55 55 55 56 57 54 51 52 56 57 55 55 58 58 52 49 51 55 62 70 80 86 86 80 69 60 61 66 66 69 74 75 73 69 62 56 51 49 51 55 55 57 59 57 51 49 46 35 25 23 23 24 29 31 31 32 31 32 33 33 33 35
64 61 60 62 62 61 61 61 61 64 66 65 64 64 61 56 54 54 54 52 52 50 49 49 50 53 55 56 56 55 54 52 52 55 57 58 57 54 56 58 56 55 53 51 57 66 75 84 87 85 78 66 55 52 53 60 69 74 76 76 71 64 57 51 49 50 52 56 58 57 52 49 48 38 27 24 25 25 29 31 31 32 32 32 33 32 33 35
62 58 57 60 61 60 60 61 62 63 64 64 64 62 57 54 52 49 49 49 48 47 49 50 49 50 54 56 58 57 55 53 55 58 57 57 60 58 54 54 56 58 58 53 54 61 69 77 82 83 81 72 59 53 51 51 59 68 74 75 71 68 65 60 57 55 54 56 58 57 54 51 51 44 31 27 28 27 29 31 31 32 33 32 33 34 35 35
60 58 57 59 60 59 58 60 62 62 62 62 61 58 54 53 51 46 45 46 45 45 49 50 48 48 51 54 57 57 57 56 56 57 57 57 60 59 54 51 49 52 57 56 54 54 57 62 68 74 79 78 73 69 62 53 52 58 65 70 73 74 74 70 68 67 64 63 63 61 59 57 55 50 37 30 30 29 31 32 31 32 34 33 33 34 34 33
60 58 58 60 60 57 56 59 62 62 62 62 60 58 54 51 48 45 43 44 44 46 48 48 47 47 48 50 53 55 56 56 55 55 57 57 56 55 54 52 46 44 49 54 54 52 51 53 58 67 75 77 76 76 71 62 54 54 60 69 73 74 76 77 76 76 74 72 70 68 67 63 59 55 45 35 33 33 34 35 34 34 34 34 35 33 31 31
60 57 57 60 60 57 57 59 63 64 63 61 58 56 54 50 47 45 44 44 44 45 46 46 46 47 46 46 49 51 51 52 54 55 56 56 53 52 54 55 51 44 43 46 51 53 53 53 55 60 63 65 69 75 75 67 57 56 62 69 73 73 75 78 78 78 78 77 77 76 73 69 63 61 55 44 39 38 38 38 38 36 35 35 36 34 30 29
60 57 57 60 59 58 60 62 64 64 62 58 55 54 53 51 50 48 47 46 44 44 45 44 44 45 45 45 47 48 48 50 53 56 57 55 54 53 53 55 56 49 44 45 50 52 53 54 56 58 58 58 63 70 71 66 59 56 59 64 67 68 72 76 78 80 80 79 80 80 77 72 67 66 62 51 43 41 41 40 40 39 37 36 37 36 32 29
60 58 59 60 58 59 63 63 62 62 59 55 51 50 50 50 50 50 49 48 46 45 44 43 42 43 45 45 44 45 46 49 52 55 56 54 53 52 49 51 57 56 48 44 45 48 48 49 53 57 59 59 60 64 66 67 62 55 54 55 56 58 64 71 73 74 76 76 77 79 80 77 71 69 67 54 43 43 42 41 41 41 40 37 36 36 35 32
60 58 58 58 57 60 63 62 60 59 57 52 49 48 48 49 50 50 50 48 47 46 45 44 43 43 45 44 43 43 45 49 52 52 52 50 50 50 49 52 59 61 54 44 41 44 46 47 49 52 53 55 58 60 63 67 68 63 55 49 51 54 55 59 63 65 67 69 70 72 77 80 75 71 68 53 41 42 43 42 41 42 42 39 36 36 36 35
59 56 56 58 58 60 63 61 57 55 54 52 50 49 47 47 47 49 50 48 46 45 44 44 44 44 44 44 43 42 43 48 51 51 50 50 50 51 53 57 62 64 61 52 45 43 43 45 48 50 50 54 59 63 65 68 72 72 63 51 47 49 50 53 57 61 64 64 63 65 71 78 77 72 69 56 42 42 45 44 42 43 44 43 40 38 38 38
58 57 58 60 61 61 62 59 53 51 51 52 51 48 46 45 45 45 47 47 46 45 44 43 43 43 43 44 43 42 43 47 49 50 51 53 54 55 56 59 64 64 61 56 50 46 47 47 48 50 53 55 59 64 70 72 71 69 64 55 47 47 50 53 54 59 64 62 59 63 70 76 76 73 73 64 48 44 47 45 44 45 47 47 46 43 40 40
59 62 63 63 62 61 61 58 52 48 49 50 50 48 46 45 45 44 45 46 46 46 46 45 43 44 46 45 44 43 43 46 49 52 54 54 55 57 57 59 61 60 57 55 52 51 52 51 49 50 51 52 53 58 65 70 72 70 63 55 47 45 49 53 56 59 59 57 58 60 63 67 68 68 74 71 55 47 48 48 47 47 46 47 49 47 43 40
60 64 66 65 63 61 60 59 55 50 48 48 49 50 48 47 46 46 46 46 46 47 48 47 45 46 48 47 44 43 42 45 50 53 55 55 55 57 58 58 59 59 56 54 54 54 53 54 53 51 49 48 49 51 54 58 66 70 67 60 52 47 48 52 57 57 53 56 59 53 51 58 60 59 65 67 56 47 49 52 50 48 46 46 47 47 45 42
63 64 63 62 61 61 60 58 56 53 50 49 49 50 50 49 48 47 46 46 47 47 49 50 48 46 47 48 46 44 43 45 49 53 55 57 58 59 61 60 60 60 58 55 55 54 54 55 54 52 50 49 49 50 51 52 54 58 62 64 60 55 50 48 51 51 52 59 58 48 47 54 54 52 55 59 55 45 47 54 54 49 45 44 44 44 44 44
63 63 62 59 57 56 55 53 52 51 51 50 50 50 50 49 49 47 46 46 47 48 49 50 49 46 47 49 48 46 45 44 47 52 56 57 59 61 63 63 62 61 60 58 55 54 54 55 52 51 51 51 51 51 51 52 53 52 55 60 62 61 55 48 46 47 51 56 54 48 49 52 50 50 51 54 57 50 44 52 57 52 46 45 45 44 45 46
59 60 60 59 56 53 51 50 50 49 49 49 50 49 48 47 47 47 46 45 46 48 49 48 47 46 47 50 50 45 42 40 42 47 52 56 59 60 62 64 62 58 56 56 57 57 56 54 53 52 51 52 52 52 51 52 54 55 56 58 60 61 59 51 47 47 50 53 53 51 52 53 50 49 50 52 58 57 47 46 55 56 49 47 48 46 45 45
55 55 55 57 56 53 51 50 49 48 48 48 47 46 46 46 46 46 46 45 44 46 47 45 46 47 48 51 50 43 38 38 39 42 48 54 58 59 60 63 63 58 51 49 54 58 57 55 53 54 56 55 52 52 53 52 53 57 60 61 61 62 61 53 46 47 51 52 52 52 54 53 49 47 50 52 53 56 49 38 46 55 52 50 51 49 46 46
55 54 53 53 52 52 50 49 48 48 47 44 40 39 43 46 47 47 47 45 45 47 48 46 47 49 50 51 50 43 38 39 40 41 45 51 57 59 60 61 64 63 54 46 47 51 54 55 55 55 56 54 51 53 54 53 56 60 60 61 62 62 62 56 47 46 49 50 50 52 52 51 47 43 47 49 49 53 49 35 36 49 52 52 54 53 49 49
Wind_Direction
235 236 236 234 231 229 228 227 227 227 228 228 228 227 226 226 227 228 228 230 232 233 234 233 232 232 231 228 225 224 224 223 221 219 220 223 218 216 219 221 221 222 223 225 224 225 226 225 224 225 225 224 226 227 228 231 234 235 236 235 227 223 230 231 232 233 232 233 232 229 229 228 228 231 232 231 231 234 236 232 228 226 225 224 223 222 221 216
233 234 235 235 233 231 229 227 226 226 227 228 227 228 227 226 225 227 227 228 230 232 233 233 232 231 231 230 227 224 225 224 223 219 218 223 222 218 217 219 222 222 223 225 224 224 226 225 224 225 227 225 225 227 228 230 233 234 236 235 227 224 230 231 230 231 233 233 232 231 229 226 226 230 232 232 231 231 234 233 229 226 226 225 226 227 225 221
231 231 232 233 233 231 230 228 227 225 226 227 227 227 227 226 225 225 226 227 228 230 232 233 233 231 231 231 229 226 225 226 224 219 218 223 224 221 216 215 219 222 224 226 226 225 226 226 225 224 226 227 225 226 227 228 232 233 234 232 227 227 230 230 229 228 230 230 230 232 230 225 224 227 232 233 232 231 232 233 229 226 226 225 226 230 229 226
229 230 232 232 231 231 230 229 227 226 225 226 226 227 227 226 225 225 225 226 227 228 230 232 232 231 231 230 231 228 225 227 224 220 220 222 222 222 218 214 216 221 223 226 227 226 226 227 226 225 226 227 225 226 228 228 230 233 233 230 228 231 232 229 227 226 228 229 228 230 231 228 224 225 229 233 235 232 231 233 231 229 228 226 225 228 229 228
226 228 233 232 231 230 230 229 228 227 225 225 226 226 227 227 225 224 224 225 226 227 229 230 232 231 231 230 231 229 227 227 224 220 222 222 223 222 217 214 213 217 221 223 226 227 227 228 228 227 228 228 227 228 229 229 230 232 232 229 228 232 233 229 226 226 227 228 228 229 229 230 227 226 228 232 235 234 232 233 233 232 232 230 227 228 230 228
223 225 231 233 231 230 229 228 227 227 225 224 225 226 226 227 226 225 224 224 225 226 227 229 230 231 230 230 230 230 228 227 223 221 223 223 224 224 217 213 211 214 219 221 223 226 227 228 227 227 229 230 230 230 230 230 231 232 231 229 229 232 233 229 225 226 227 228 229 228 229 230 230 229 228 230 234 233 233 234 233 233 233 232 230 228 230 231
222 223 229 232 231 230 228 228 226 226 226 224 224 225 225 225 226 225 224 224 224 225 226 227 229 230 230 229 229 230 230 227 224 223 224 224 224 226 221 214 210 211 217 219 219 223 228 227 226 227 228 229 229 230 230 231 232 231 230 229 229 231 232 230 227 227 227 228 230 229 228 228 228 228 227 229 231 230 233 233 233 233 232 233 232 229 229 231
221 220 227 231 230 229 228 227 226 225 225 225 224 225 225 224 225 226 224 224 224 225 225 226 228 228 229 229 229 230 230 227 226 224 224 224 224 226 225 217 210 209 213 218 217 220 226 226 226 228 228 228 228 229 230 230 232 230 229 229 230 230 231 233 233 231 228 228 230 229 228 225 224 226 227 231 230 228 232 233 232 234 233 233 234 231 229 229
220 218 222 227 228 229 228 226 226 225 225 225 224 224 225 224 224 225 225 223 224 224 225 225 226 227 228 229 229 229 229 227 227 226 224 224 224 226 227 220 212 210 211 217 220 219 223 225 226 227 227 228 229 230 229 229 231 230 228 230 231 231 231 232 233 233 231 229 230 230 229 226 224 224 226 232 231 226 231 233 231 234 234 234 234 233 230 229
219 217 219 222 223 226 228 226 226 225 224 225 225 225 225 225 224 224 224 223 223 224 225 225 225 226 227 228 229 229 228 228 228 227 225 223 224 225 226 223 215 211 211 214 220 220 221 223 224 225 227 228 229 228 227 228 230 230 228 229 231 232 231 230 229 231 232 230 230 231 231 229 227 224 227 235 232 224 229 232 231 233 235 235 234 234 232 230
217 217 218 219 221 223 226 226 226 225 224 224 225 226 226 225 224 224 224 224 223 223 224 225 225 225 226 227 228 228 226 228 228 228 226 221 222 224 225 226 217 212 212 212 218 222 220 222 222 223 226 228 229 228 228 228 230 229 229 229 230 232 232 230 228 229 230 231 230 232 233 231 228 223 228 239 234 223 227 231 231 232 234 235 235 235 233 231
215 216 217 218 220 222 225 225 224 225 224 224 224 226 226 226 224 223 224 224 223 223 224 224 225 225 226 226 226 226 224 227 229 229 226 220 220 222 223 226 218 211 211 211 216 222 221 221 222 221 224 227 227 228 229 230 230 230 230 229 228 230 232 231 230 229 230 231 232 235 234 230 228 223 230 239 235 225 225 228 230 231 233 234 235 236 235 232
214 215 217 218 219 221 224 224 223 223 223 223 223 225 226 226 225 223 223 224 223 223 223 224 225 225 225 225 224 225 223 225 228 229 227 220 218 220 221 223 217 209 209 209 213 219 220 222 223 221 221 224 225 226 228 230 230 230 230 230 229 229 230 230 230 230 230 232 234 237 236 230 228 224 230 238 236 229 224 226 229 230 230 231 234 236 236 233
213 214 216 216 217 219 222 223 221 221 221 222 222 224 225 225 225 223 223 224 223 222 223 223 224 224 225 224 223 224 223 224 227 228 227 221 217 220 221 220 217 210 208 208 208 212 217 221 224 225 223 223 224 224 227 229 230 230 229 230 230 230 229 229 230 230 231 233 234 237 236 230 227 226 231 237 236 232 226 225 227 228 229 228 230 234 235 234
211 213 214 213 214 216 219 220 219 219 219 220 222 223 223 224 224 223 223 223 223 223 222 223 223 224 225 223 222 222 223 224 226 227 226 223 218 220 221 220 218 213 209 209 208 210 216 219 223 225 224 223 223 223 225 227 229 229 229 229 229 229 228 228 230 231 232 233 234 237 236 229 228 229 233 236 235 233 228 225 226 227 227 227 228 232 234 233
210 212 212 212 213 215 216 217 218 217 217 218 220 222 223 225 225 224 223 222 223 223 222 223 223 223 224 223 222 222 223 224 226 226 225 222 219 220 221 220 220 215 211 212 210 211 217 220 224 225 224 224 224 224 224 226 228 229 229 229 228 229 229 227 229 230 231 233 234 236 236 230 229 230 232 234 233 232 229 226 226 226 226 225 226 229 231 233
209 211 211 211 214 216 216 215 217 216 217 218 220 222 222 223 225 225 223 222 222 223 223 223 222 223 223 222 221 221 223 224 225 226 225 223 220 220 222 221 221 218 214 213 212 213 217 218 224 227 225 224 223 223 223 225 228 228 227 228 228 228 229 228 229 231 231 233 234 236 236 230 229 229 230 231 231 231 230 227 226 226 226 224 224 226 230 233
209 210 210 209 212 216 216 215 215 214 216 217 218 220 219 219 222 225 223 221 221 222 222 222 221 222 222 221 221 222 224 225 226 226 225 224 222 222 222 221 222 219 215 214 214 215 215 215 221 226 225 223 222 222 223 225 227 228 228 230 230 229 228 227 228 231 232 234 235 237 236 231 228 227 227 229 229 230 230 228 226 225 226 225 224 224 227 230
208 209 209 210 211 212 214 213 212 211 212 214 215 216 215 215 217 222 223 221 221 221 221 221 221 222 222 222 222 223 225 226 227 226 225 224 223 223 223 222 222 220 214 212 215 216 214 215 222 227 226 225 224 222 223 225 226 227 228 232 234 232 230 229 229 231 232 234 236 237 236 231 228 227 225 227 227 227 228 229 227 226 227 228 225 223 225 227
208 208 207 209 211 210 212 212 209 209 209 210 211 211 211 212 213 216 220 220 220 221 222 223 223 223 222 223 224 224 226 227 228 227 226 224 224 224 225 223 222 222 215 211 214 216 214 217 222 226 227 227 227 225 223 225 227 227 226 229 233 234 232 233 233 233 233 234 235 237 236 230 228 227 225 226 228 227 228 230 230 228 228 230 228 224 223 224
206 206 206 207 208 208 210 211 209 208 209 210 211 211 210 211 214 216 219 221 220 220 221 221 222 222 221 223 223 223 226 228 228 228 226 224 223 224 225 224 222 223 218 211 213 217 217 217 219 222 226 227 227 226 225 225 227 229 227 228 232 233 233 234 234 233 233 235 235 236 236 231 228 229 227 227 229 229 230 232 232 230 228 230 230 227 224 222
204 204 205 205 205 207 207 208 210 208 208 210 211 212 212 212 215 219 223 225 222 221 221 219 220 220 219 220 221 222 224 226 226 226 224 223 223 225 226 225 223 223 221 216 217 221 220 215 213 219 227 229 225 222 224 225 226 229 229 229 231 232 233 233 232 232 232 234 234 235 237 232 228 229 228 229 230 230 232 234 234 232 229 228 231 230 227 225
202 202 204 204 203 206 207 206 209 208 208 210 210 212 213 212 213 216 220 222 223 223 222 221 221 220 219 219 220 221 223 225 225 224 223 222 223 225 227 227 225 225 225 223 222 224 221 214 211 220 227 231 227 221 220 221 224 227 228 229 231 232 234 233 232 233 233 235 235 235 238 234 228 229 229 230 232 230 232 235 235 233 230 228 229 230 230 229
199 200 202 202 203 205 206 205 207 208 208 210 210 211 213 212 212 215 218 220 220 221 221 221 221 221 220 220 220 220 223 225 225 223 222 222 223 226 227 227 226 227 228 226 224 223 219 214 214 221 225 229 230 225 221 221 222 225 227 230 232 233 235 234 232 233 233 234 235 235 238 234 228 230 231 231 234 231 230 234 234 233 230 227 226 228 230 231
197 200 200 199 202 205 204 206 207 206 206 208 210 210 210 212 213 214 217 219 220 219 217 217 218 219 219 220 220 220 222 224 223 222 221 221 223 226 228 227 226 228 229 227 225 222 217 214 216 221 225 227 229 228 227 228 227 225 226 229 232 233 233 233 230 230 231 232 232 234 237 235 228 230 231 230 233 231 229 232 233 231 230 227 225 226 229 231
196 199 198 197 200 203 203 206 207 205 205 207 208 209 210 212 213 214 216 219 220 218 217 217 216 217 218 219 219 220 221 222 221 220 220 222 224 226 228 228 227 228 227 227 226 223 220 219 218 220 224 226 228 227 226 230 230 227 227 229 231 231 231 230 228 227 229 230 231 233 237 236 229 228 231 229 232 232 229 230 231 230 230 229 226 225 227 230
196 197 197 195 197 201 203 203 203 204 205 205 205 207 210 212 214 216 218 220 220 217 216 217 216 216 217 218 219 220 221 221 220 218 217 221 224 225 227 228 227 226 225 226 226 224 223 225 221 218 220 225 226 225 226 229 229 228 230 231 230 230 229 229 226 226 228 230 231 232 236 239 230 226 231 231 232 232 229 230 230 229 231 232 229 224 225 229
195 196 196 195 196 201 204 203 202 203 204 204 204 206 208 210 213 215 217 220 220 216 216 216 215 215 215 215 216 219 221 221 221 218 215 217 221 223 225 227 228 226 225 226 228 226 224 227 226 217 217 223 223 223 226 228 228 226 227 230 229 227 228 228 225 225 228 231 231 229 234 240 232 221 228 233 232 232 230 231 230 228 230 233 231 227 225 228
193 195 195 194 196 201 205 205 204 203 203 203 204 206 208 209 212 214 217 220 218 215 216 216 215 214 213 214 214 216 219 218 217 215 212 213 217 220 223 226 227 225 224 225 227 228 225 227 229 219 215 220 220 221 226 226 227 224 221 224 226 226 226 226 225 225 227 230 229 227 231 239 236 221 221 231 234 233 231 233 232 227 228 231 231 228 226 227
192 193 194 194 195 199 203 203 203 204 203 202 204 206 207 208 210 213 216 218 216 215 215 215 215 214 213 215 214 214 216 215 213 211 208 211 215 217 219 223 226 224 222 220 220 223 222 223 227 220 214 217 218 219 221 223 226 225 221 221 222 223 225 225 225 225 227 228 226 225 228 238 240 224 216 227 232 234 234 232 233 228 225 229 232 231 229 230
191 193 194 194 196 199 200 200 200 201 200 200 202 205 207 208 210 213 216 217 217 216 215 215 216 214 214 215 215 216 216 212 209 210 208 209 213 215 214 216 220 222 221 218 216 219 220 219 220 217 213 215 218 217 215 218 222 220 221 221 218 219 221 222 222 222 225 227 224 224 226 235 239 224 212 223 226 231 236 234 233 230 227 228 231 233 232 233
190 193 194 195 197 198 200 200 198 199 200 202 203 203 204 206 209 213 216 216 217 218 217 216 216 214 214 215 215 218 218 214 209 210 210 209 213 216 218 218 218 219 219 217 215 216 219 218 216 213 211 215 220 220 216 219 222 220 220 221 219 218 217 216 218 220 224 226 225 225 226 232 235 225 211 218 219 224 234 235 233 230 230 230 230 232 234 235
191 193 193 195 197 198 199 200 198 197 200 205 206 204 204 207 210 213 215 216 217 219 218 218 219 217 216 216 215 215 216 215 212 211 210 211 215 217 220 223 222 224 225 222 219 217 219 220 215 211 211 215 220 223 222 222 225 225 224 223 222 223 222 219 219 221 225 229 229 228 229 232 235 229 216 213 211 218 228 232 233 230 231 232 231 232 235 236
189 192 193 195 197 198 198 198 199 199 201 205 206 205 205 209 214 216 216 215 216 219 219 219 219 218 217 217 218 216 215 213 210 209 208 208 213 215 217 219 218 221 224 223 222 221 221 220 215 213 215 215 217 223 226 226 227 228 230 232 231 230 231 230 229 229 230 233 234 232 231 234 236 231 221 217 209 216 228 232 233 231 231 233 232 231 233 234
187 191 194 194 195 197 197 197 199 201 203 204 204 205 207 210 213 216 217 216 215 216 217 218 218 218 217 216 216 217 218 216 211 210 209 207 211 214 216 218 216 216 218 219 220 221 223 222 218 218 219 216 216 221 225 228 230 230 231 234 235 235 237 236 235 235 235 236 239 238 235 236 239 233 223 226 220 218 231 233 230 231 230 232 233 230 229 231
188 190 193 195 196 195 195 196 199 203 205 205 205 207 210 213 215 217 217 217 218 217 216 217 216 216 216 215 214 213 214 212 208 209 209 208 212 216 218 220 220 220 222 223 222 222 224 225 224 225 224 219 217 220 224 227 230 231 230 232 234 236 238 236 234 233 234 236 238 239 237 235 239 234 220 229 231 221 227 230 226 229 230 231 232 230 229 230
189 189 191 196 196 195 195 196 200 204 205 207 210 211 213 215 216 217 217 217 217 217 218 219 217 217 217 216 215 213 210 206 204 207 208 206 209 213 218 221 221 222 225 228 228 226 226 227 228 229 227 222 221 226 230 230 231 232 231 231 233 233 234 235 235 235 235 236 236 237 237 236 238 233 220 228 236 225 222 226 225 228 231 231 233 233 233 232
188 188 192 195 195 196 196 196 201 205 205 207 211 213 214 215 214 214 216 217 216 215 218 220 219 219 219 219 219 217 212 207 204 205 207 207 208 210 214 219 221 220 222 225 228 229 228 229 230 229 226 224 225 229 232 233 235 235 233 231 230 231 231 232 235 237 237 238 239 239 240 240 239 237 230 232 240 233 223 223 226 230 233 234 236 237 238 238
187 188 193 194 194 196 196 196 201 206 207 208 209 210 212 213 215 214 215 217 216 215 218 219 219 219 219 219 220 220 218 213 208 207 208 209 211 211 212 218 219 218 219 221 224 224 224 228 229 227 226 227 228 231 232 232 234 234 231 228 227 229 232 233 236 238 240 241 242 243 243 242 241 243 243 241 244 240 228 223 225 231 236 238 241 242 242 240
187 188 193 194 194 195 196 197 202 206 208 209 210 211 211 212 214 215 215 216 216 216 218 219 219 219 219 218 218 219 219 217 213 211 211 211 213 212 212 216 217 215 218 222 224 223 222 225 227 227 227 228 229 230 231 232 234 234 233 231 229 229 232 234 236 238 240 242 245 247 247 245 244 247 249 248 247 242 233 228 227 229 235 238 241 244 244 243
185 188 193 193 194 195 196 198 202 205 207 208 209 210 211 211 211 213 215 215 215 216 217 218 218 218 218 217 217 216 215 213 211 211 211 211 212 212 213 217 218 216 218 222 225 224 222 223 226 228 229 230 232 233 232 233 236 236 234 233 234 234 234 235 235 236 238 240 243 246 247 246 245 247 249 249 247 241 233 230 229 229 233 235 238 242 243 243
183 188 193 194 194 196 197 198 202 205 205 206 207 209 211 212 212 213 214 215 215 215 215 216 215 214 215 214 215 215 212 210 209 210 210 210 212 213 213 217 218 218 220 222 224 225 224 223 225 228 231 231 233 233 231 231 232 231 229 228 230 233 235 236 236 237 239 241 243 245 247 246 245 247 250 248 244 240 234 230 230 231 233 234 234 237 240 241
183 187 192 194 195 197 197 197 199 202 204 205 206 208 210 212 213 214 215 215 215 215 214 214 213 211 211 210 210 211 209 207 208 210 211 211 212 212 211 213 214 215 217 217 216 218 219 221 223 227 230 229 229 230 230 228 228 230 230 229 228 230 234 237 239 240 242 242 243 245 247 247 247 249 252 248 239 237 235 229 229 231 234 235 232 233 236 239
185 186 189 193 196 200 201 199 199 201 201 203 205 207 208 210 213 214 216 216 215 215 215 214 214 212 210 209 208 207 206 206 206 207 208 208 208 208 208 210 212 214 215 216 218 218 218 221 223 225 225 222 221 223 225 225 227 229 232 233 233 232 232 234 234 236 239 239 240 244 246 247 248 250 252 248 235 233 235 230 228 231 234 235 232 230 232 235
187 188 191 193 195 199 202 202 202 203 202 201 203 205 206 207 210 212 216 218 217 215 212 211 213 212 208 207 208 206 204 205 206 205 204 204 204 205 206 208 211 213 215 218 221 224 224 225 225 226 227 225 223 226 227 228 229 230 231 234 236 234 232 233 232 233 235 236 237 241 244 247 248 248 251 250 236 229 234 233 227 229 232 234 234 232 232 234
188 190 191 192 193 197 200 199 198 200 202 202 202 204 205 206 208 210 214 216 216 214 210 207 209 209 206 203 205 206 204 202 204 204 203 202 202 204 206 207 209 211 214 216 218 220 224 227 227 228 233 236 236 236 235 233 233 233 233 235 239 238 236 236 236 235 235 236 238 240 242 247 248 247 250 252 242 228 231 233 228 228 231 234 236 236 235 235
191 193 193 191 191 193 196 196 196 198 202 205 206 207 207 208 210 211 213 215 214 213 210 207 207 209 206 201 201 204 205 204 203 202 202 202 201 203 205 206 207 209 211 214 216 217 220 225 226 226 229 233 235 236 238 237 236 236 236 237 241 244 242 241 240 237 235 238 238 236 239 244 246 246 249 253 249 234 229 232 231 229 232 235 238 239 239 237
192 195 196 196 195 195 195 195 197 199 203 206 209 212 213 213 214 214 216 217 215 212 209 207 207 209 206 201 199 200 203 205 204 202 202 201 201 203 205 205 206 207 209 213 215 216 219 222 225 226 226 228 230 231 234 237 238 238 238 237 239 242 244 246 244 239 239 242 237 233 238 243 244 246 249 254 255 244 231 231 232 231 234 238 239 240 241 239
193 194 196 198 200 201 200 198 198 200 203 206 208 211 214 216 218 218 218 219 216 212 209 207 207 208 205 201 200 199 200 203 204 203 203 201 201 203 204 204 204 205 209 213 214 215 219 221 223 224 224 225 226 227 228 231 234 234 235 235 236 238 241 244 243 238 242 246 239 233 242 245 242 245 250 254 258 255 240 231 231 229 231 238 239 238 238 239
195 195 197 197 198 200 202 203 203 205 207 208 209 210 211 214 216 218 219 221 219 214 210 207 207 208 206 202 200 198 197 199 202 205 205 204 202 202 204 204 203 203 209 215 216 216 217 219 221 223 223 223 224 227 228 228 230 230 230 230 231 234 236 240 238 235 239 242 235 233 240 241 238 242 247 250 254 256 250 237 233 232 230 233 237 237 236 237
195 195 198 199 198 197 200 203 206 209 211 212 212 212 214 214 214 215 218 220 219 215 209 206 207 208 207 202 199 196 195 198 202 205 208 209 207 205 205 204 203 203 207 213 218 219 218 217 218 222 225 223 222 226 228 227 228 230 228 227 228 230 233 236 236 235 238 238 233 233 237 236 236 242 247 248 251 255 256 246 237 238 235 230 231 233 233 234
193 194 196 198 199 199 201 202 205 209 212 214 215 217 220 218 214 213 214 215 215 211 206 205 207 206 205 201 196 192 194 197 200 203 206 209 210 210 210 208 207 206 206 208 214 218 220 219 218 222 226 225 224 226 228 228 229 229 228 229 231 233 235 237 239 238 238 235 231 231 233 234 237 241 243 246 250 253 257 253 241 239 238 233 229 229 231 233
Height
5627 5632 5636 5641 5647 5652 5657 5662 5667 5673 5678 5683 5687 5692 5698 5704 5709 5714 5718 5722 5726 5728 5732 5737 5742 5746 5751 5756 5760 5764 5767 5772 5777 5782 5789 5796 5799 5802 5807 5813 5816 5820 5823 5824 5827 5830 5833 5837 5840 5842 5844 5845 5847 5849 5851 5853 5854 5855 5858 5862 5868 5872 5872 5872 5872 5873 5874 5875 5876 5877 5878 5879 5881 5882 5882 5883 5884 5884 5885 5886 5886 5887 5887 5888 5889 5890 5891 5892
5620 5625 5629 5633 5639 5644 5649 5654 5660 5665 5670 5675 5680 5684 5690 5697 5702 5706 5712 5716 5720 5723 5726 5731 5736 5741 5745 5749 5755 5759 5761 5766 5771 5778 5788 5792 5794 5799 5804 5810 5813 5816 5819 5821 5824 5827 5829 5833 5837 5839 5840 5842 5844 5846 5848 5849 5851 5853 5856 5860 5867 5869 5869 5869 5870 5871 5872 5873 5875 5875 5876 5878 5879 5880 5881 5882 5883 5883 5884 5885 5885 5886 5886 5887 5888 5889 5890 5891
5613 5618 5621 5625 5631 5636 5641 5647 5652 5657 5663 5668 5673 5677 5682 5689 5695 5700 5705 5709 5714 5717 5720 5724 5729 5735 5738 5742 5748 5752 5756 5759 5764 5778 5788 5789 5792 5797 5801 5806 5809 5812 5815 5818 5821 5824 5826 5830 5833 5836 5837 5839 5841 5843 5844 5846 5848 5849 5852 5859 5865 5866 5865 5867 5868 5870 5870 5872 5873 5873 5875 5876 5877 5878 5879 5880 5881 5882 5883 5884 5884 5884 5884 5885 5886 5887 5889 5890
5607 5612 5614 5618 5623 5629 5634 5640 5645 5650 5655 5660 5666 5670 5675 5681 5687 5693 5698 5703 5707 5710 5714 5718 5722 5727 5732 5737 5741 5747 5753 5752 5760 5779 5784 5784 5788 5793 5797 5802 5805 5808 5811 5814 5817 5821 5824 5827 5829 5832 5833 5835 5838 5840 5841 5843 5845 5846 5850 5858 5863 5862 5862 5864 5866 5867 5868 5870 5871 5872 5873 5874 5875 5876 5877 5878 5879 5881 5882 5882 5882 5883 5883 5883 5884 5885 5887 5888
5599 5604 5608 5611 5617 5622 5627 5632 5638 5643 5648 5654 5659 5664 5669 5673 5679 5685 5690 5696 5700 5705 5709 5711 5715 5720 5725 5731 5735 5741 5745 5744 5759 5778 5778 5779 5785 5787 5792 5798 5801 5804 5807 5811 5814 5817 5821 5823 5826 5829 5830 5832 5835 5837 5837 5840 5842 5843 5849 5857 5859 5858 5860 5861 5863 5866 5866 5867 5869 5870 5871 5871 5873 5874 5875 5876 5877 5879 5880 5880 5881 5881 5881 5882 5883 5884 5885 5886
5590 5596 5600 5604 5609 5614 5619 5624 5630 5635 5640 5646 5651 5657 5662 5666 5672 5677 5683 5688 5693 5698 5702 5705 5709 5714 5719 5725 5729 5733 5736 5743 5762 5773 5772 5776 5780 5782 5788 5792 5796 5800 5804 5808 5811 5815 5817 5820 5823 5825 5827 5829 5831 5834 5835 5838 5839 5841 5848 5853 5855 5856 5858 5859 5861 5863 5864 5865 5866 5867 5868 5869 5871 5872 5873 5874 5875 5877 5878 5878 5880 5880 5880 5880 5881 5882 5883 5884
5582 5588 5593 5597 5602 5607 5612 5617 5622 5627 5633 5638 5644 5649 5654 5660 5665 5669 5676 5681 5686 5691 5695 5699 5703 5707 5712 5717 5722 5725 5731 5745 5759 5765 5767 5771 5774 5777 5782 5787 5792 5796 5800 5803 5807 5811 5812 5817 5820 5821 5823 5824 5828 5831 5833 5835 5835 5839 5845 5849 5851 5853 5855 5856 5858 5860 5861 5863 5864 5865 5866 5867 5869 5870 5871 5871 5872 5875 5876 5876 5878 5878 5878 5879 5879 5880 5881 5882
5575 5581 5586 5591 5597 5601 5605 5610 5616 5621 5626 5631 5636 5642 5647 5653 5657 5662 5668 5673 5679 5684 5688 5692 5696 5702 5706 5710 5716 5720 5729 5746 5754 5757 5761 5764 5768 5771 5776 5783 5788 5792 5796 5799 5803 5806 5808 5813 5816 5817 5819 5820 5824 5827 5830 5831 5831 5835 5842 5846 5847 5849 5852 5854 5855 5857 5859 5860 5861 5863 5864 5865 5866 5867 5869 5869 5870 5873 5874 5874 5876 5876 5876 5877 5877 5879 5879 5880
5567 5573 5578 5584 5591 5595 5598 5604 5609 5614 5619 5624 5630 5635 5640 5646 5651 5655 5660 5666 5672 5676 5681 5686 5690 5696 5700 5705 5711 5716 5730 5744 5746 5747 5754 5760 5763 5766 5771 5778 5783 5787 5791 5795 5799 5801 5803 5809 5811 5813 5815 5817 5820 5823 5826 5826 5827 5833 5840 5843 5844 5846 5849 5850 5852 5854 5855 5857 5859 5861 5862 5863 5864 5866 5867 5867 5869 5872 5872 5872 5873 5874 5875 5875 5876 5877 5877 5878
5559 5565 5571 5577 5582 5586 5591 5597 5602 5608 5613 5618 5623 5628 5633 5639 5645 5649 5653 5659 5664 5668 5674 5678 5684 5690 5695 5701 5705 5714 5730 5736 5735 5739 5747 5755 5758 5761 5766 5771 5777 5781 5785 5790 5793 5796 5800 5804 5806 5809 5811 5813 5815 5818 5821 5822 5824 5831 5836 5838 5840 5841 5844 5846 5848 5850 5852 5854 5856 5858 5859 5860 5861 5864 5866 5865 5867 5870 5869 5869 5871 5872 5873 5874 5875 5875 5875 5876
5552 5558 5565 5570 5574 5578 5584 5591 5596 5601 5607 5612 5617 5622 5627 5633 5639 5643 5647 5651 5656 5661 5666 5672 5678 5684 5690 5695 5700 5714 5726 5727 5727 5729 5736 5747 5752 5756 5761 5764 5771 5776 5780 5785 5788 5792 5795 5799 5802 5805 5806 5807 5810 5814 5817 5819 5822 5827 5831 5832 5834 5836 5839 5842 5844 5846 5849 5851 5853 5855 5856 5857 5859 5863 5865 5862 5864 5867 5866 5867 5869 5870 5871 5872 5873 5873 5874 5874
5544 5550 5558 5563 5567 5573 5579 5584 5590 5596 5601 5606 5611 5616 5621 5626 5632 5637 5641 5644 5649 5654 5659 5666 5671 5677 5683 5686 5697 5711 5717 5717 5717 5719 5729 5742 5746 5749 5753 5757 5764 5770 5775 5779 5783 5786 5789 5793 5795 5798 5799 5802 5807 5811 5813 5816 5819 5823 5825 5826 5828 5831 5833 5837 5840 5842 5845 5847 5850 5851 5852 5855 5859 5863 5863 5859 5860 5863 5864 5865 5866 5867 5869 5870 5871 5871 5872 5872
5535 5542 5550 5556 5562 5568 5573 5579 5585 5590 5596 5601 5606 5610 5615 5620 5625 5630 5634 5638 5643 5648 5653 5659 5664 5671 5673 5680 5695 5704 5706 5709 5710 5712 5723 5734 5739 5742 5746 5751 5757 5762 5768 5772 5776 5779 5783 5787 5789 5791 5794 5797 5802 5805 5809 5812 5814 5817 5820 5821 5824 5826 5827 5832 5836 5839 5841 5843 5847 5847 5848 5854 5859 5860 5858 5855 5858 5860 5862 5863 5863 5865 5866 5867 5868 5869 5869 5870
5527 5535 5542 5549 5556 5562 5568 5573 5578 5585 5590 5596 5601 5604 5609 5615 5618 5623 5628 5632 5636 5641 5646 5651 5656 5662 5665 5676 5690 5694 5698 5703 5703 5706 5717 5727 5734 5738 5741 5747 5752 5757 5762 5766 5770 5773 5776 5781 5784 5787 5790 5793 5797 5801 5805 5807 5809 5813 5816 5817 5819 5820 5823 5829 5832 5835 5837 5839 5843 5843 5845 5853 5856 5855 5854 5853 5856 5857 5859 5861 5861 5862 5863 5865 5866 5866 5867 5868
5519 5527 5534 5542 5549 5555 5561 5566 5572 5579 5585 5591 5595 5599 5604 5609 5613 5618 5622 5626 5630 5634 5639 5643 5648 5654 5659 5671 5681 5686 5691 5695 5698 5705 5712 5720 5728 5733 5737 5743 5748 5753 5758 5760 5763 5766 5768 5774 5780 5783 5785 5788 5792 5796 5799 5802 5805 5808 5810 5812 5814 5816 5820 5826 5829 5832 5834 5836 5839 5838 5841 5850 5852 5852 5852 5851 5853 5855 5857 5858 5858 5859 5860 5862 5863 5864 5865 5865
5511 5519 5527 5536 5543 5547 5553 5559 5565 5573 5580 5586 5590 5594 5599 5605 5608 5612 5616 5620 5624 5627 5632 5636 5641 5648 5655 5664 5674 5681 5685 5690 5697 5701 5704 5713 5721 5726 5731 5737 5743 5748 5752 5755 5758 5762 5765 5769 5774 5776 5781 5784 5787 5792 5796 5798 5800 5803 5806 5808 5811 5813 5817 5823 5825 5828 5830 5831 5834 5833 5838 5847 5849 5850 5850 5849 5851 5852 5853 5855 5855 5856 5857 5859 5860 5861 5863 5864
5504 5512 5521 5531 5538 5542 5548 5554 5561 5569 5576 5582 5586 5591 5597 5602 5604 5606 5608 5613 5617 5621 5626 5630 5637 5643 5646 5656 5667 5675 5682 5687 5692 5695 5700 5708 5714 5720 5726 5732 5737 5742 5747 5750 5753 5759 5761 5763 5768 5772 5776 5780 5783 5787 5789 5791 5795 5800 5803 5804 5807 5811 5814 5819 5822 5824 5826 5827 5830 5831 5835 5843 5845 5846 5846 5847 5848 5848 5850 5851 5852 5853 5854 5856 5858 5859 5861 5862
5498 5507 5515 5523 5530 5537 5544 5551 5558 5566 5573 5577 5581 5587 5592 5594 5596 5596 5599 5605 5609 5612 5616 5620 5627 5631 5638 5653 5667 5676 5682 5684 5687 5693 5697 5701 5709 5716 5721 5725 5731 5737 5742 5745 5749 5753 5754 5758 5763 5766 5769 5773 5777 5780 5785 5790 5795 5799 5801 5801 5803 5808 5810 5814 5817 5820 5822 5824 5826 5827 5831 5838 5842 5842 5843 5843 5844 5844 5846 5847 5847 5849 5851 5853 5855 5857 5859 5860
5492 5500 5508 5516 5523 5530 5538 5545 5552 5560 5566 5570 5574 5579 5582 5585 5586 5587 5589 5595 5598 5603 5609 5617 5625 5633 5647 5662 5671 5674 5677 5679 5682 5687 5691 5697 5704 5709 5713 5719 5724 5730 5734 5738 5742 5746 5750 5753 5756 5760 5766 5771 5775 5779 5786 5792 5794 5795 5797 5798 5800 5804 5807 5810 5814 5817 5819 5820 5822 5823 5827 5834 5837 5837 5839 5839 5839 5840 5841 5843 5845 5848 5849 5851 5853 5855 5856 5858
5485 5493 5501 5509 5517 5525 5533 5539 5546 5552 5557 5561 5564 5568 5569 5571 5572 5574 5580 5588 5596 5606 5616 5624 5632 5641 5652 5660 5663 5667 5671 5673 5677 5683 5688 5693 5698 5702 5707 5713 5718 5723 5727 5732 5737 5742 5746 5747 5749 5758 5765 5769 5773 5778 5783 5786 5788 5789 5792 5793 5794 5800 5805 5808 5812 5814 5815 5815 5817 5819 5822 5829 5832 5832 5835 5835 5834 5836 5839 5841 5843 5846 5847 5848 5850 5852 5853 5855
5478 5487 5495 5503 5512 5520 5528 5535 5541 5546 5551 5555 5557 5560 5561 5563 5567 5575 5584 5592 5601 5608 5613 5620 5627 5633 5642 5650 5655 5661 5664 5665 5670 5677 5682 5685 5690 5693 5697 5705 5711 5717 5724 5729 5732 5737 5739 5740 5748 5758 5763 5765 5767 5771 5776 5780 5782 5784 5787 5789 5791 5796 5801 5805 5808 5810 5811 5810 5813 5815 5817 5823 5828 5828 5831 5831 5829 5833 5837 5839 5841 5843 5844 5845 5847 5849 5850 5852
5471 5480 5490 5498 5507 5515 5522 5530 5536 5542 5547 5549 5552 5556 5562 5568 5577 5585 5590 5595 5601 5604 5606 5612 5617 5624 5634 5640 5643 5647 5651 5654 5662 5668 5673 5677 5681 5684 5690 5699 5706 5715 5722 5724 5727 5730 5730 5737 5750 5756 5758 5759 5761 5765 5770 5774 5778 5779 5782 5785 5787 5791 5797 5801 5803 5804 5806 5806 5808 5811 5811 5817 5823 5824 5825 5825 5825 5831 5835 5836 5838 5840 5841 5843 5845 5847 5847 5848
5466 5476 5485 5493 5502 5510 5518 5525 5531 5536 5539 5541 5548 5555 5563 5571 5576 5580 5583 5588 5593 5596 5601 5608 5614 5621 5627 5630 5633 5639 5645 5649 5654 5661 5667 5672 5676 5681 5686 5693 5704 5711 5712 5714 5722 5725 5728 5742 5753 5752 5752 5756 5758 5762 5766 5769 5772 5774 5778 5781 5783 5788 5793 5797 5799 5801 5803 5803 5805 5808 5807 5811 5818 5818 5819 5821 5823 5829 5832 5833 5835 5836 5839 5842 5843 5844 5844 5845
5461 5471 5479 5489 5499 5506 5515 5521 5523 5526 5532 5540 5547 5555 5561 5566 5570 5573 5577 5581 5584 5589 5596 5603 5609 5614 5619 5623 5627 5634 5639 5642 5649 5657 5662 5667 5673 5677 5681 5690 5699 5702 5702 5712 5721 5724 5732 5747 5750 5746 5748 5752 5755 5758 5761 5764 5767 5770 5773 5777 5780 5786 5791 5794 5796 5798 5800 5799 5801 5804 5801 5804 5812 5813 5815 5819 5820 5824 5828 5829 5831 5833 5836 5839 5840 5840 5841 5842
5457 5466 5475 5485 5494 5503 5511 5514 5514 5520 5529 5536 5542 5549 5554 5559 5565 5569 5572 5575 5578 5582 5587 5592 5598 5604 5611 5617 5622 5629 5634 5636 5644 5653 5658 5664 5670 5673 5679 5686 5690 5692 5699 5711 5716 5721 5731 5738 5740 5740 5744 5748 5750 5753 5757 5761 5764 5767 5769 5773 5777 5783 5787 5789 5791 5793 5794 5794 5796 5799 5795 5797 5807 5810 5811 5816 5815 5818 5824 5824 5827 5830 5833 5835 5837 5838 5839 5839
5453 5462 5471 5479 5489 5500 5504 5504 5509 5517 5523 5528 5536 5544 5549 5554 5560 5563 5567 5569 5570 5574 5581 5587 5593 5599 5606 5611 5618 5625 5627 5631 5641 5649 5656 5662 5666 5671 5675 5678 5682 5688 5698 5705 5708 5714 5722 5727 5733 5736 5739 5743 5745 5749 5755 5758 5760 5763 5766 5771 5774 5779 5783 5784 5786 5788 5787 5788 5791 5794 5791 5791 5802 5806 5807 5811 5810 5814 5820 5820 5824 5828 5830 5832 5834 5836 5836 5835
5450 5459 5468 5475 5485 5491 5492 5496 5504 5510 5515 5523 5533 5539 5544 5550 5554 5558 5561 5561 5561 5568 5576 5582 5589 5596 5603 5610 5616 5618 5622 5630 5637 5644 5654 5659 5662 5666 5667 5670 5677 5685 5693 5695 5696 5704 5713 5719 5725 5730 5734 5737 5740 5747 5754 5755 5756 5760 5764 5768 5771 5775 5778 5779 5782 5783 5783 5785 5787 5790 5789 5787 5795 5803 5805 5807 5807 5810 5814 5817 5821 5825 5826 5829 5831 5832 5832 5832
5448 5457 5465 5473 5480 5485 5489 5494 5501 5506 5514 5524 5531 5535 5539 5544 5548 5552 5553 5551 5556 5565 5571 5578 5586 5593 5598 5603 5607 5612 5621 5630 5634 5641 5651 5655 5658 5660 5661 5667 5676 5682 5687 5689 5693 5706 5714 5714 5718 5728 5732 5732 5739 5747 5750 5751 5753 5757 5761 5764 5767 5771 5773 5775 5777 5778 5779 5780 5781 5785 5786 5782 5788 5799 5803 5803 5803 5806 5811 5815 5819 5822 5823 5824 5826 5828 5828 5828
5445 5453 5462 5470 5477 5482 5488 5494 5501 5506 5513 5521 5527 5530 5535 5539 5544 5547 5545 5544 5553 5562 5568 5575 5581 5586 5591 5595 5601 5609 5617 5623 5628 5638 5646 5649 5652 5655 5658 5665 5672 5677 5682 5688 5697 5705 5708 5711 5717 5725 5727 5731 5740 5744 5744 5748 5751 5755 5758 5760 5764 5767 5769 5770 5771 5773 5774 5773 5775 5781 5784 5779 5781 5794 5800 5798 5800 5805 5810 5814 5815 5817 5818 5819 5821 5823 5824 5825
5441 5450 5459 5466 5471 5474 5480 5489 5497 5502 5510 5518 5522 5525 5530 5533 5536 5536 5533 5538 5549 5557 5564 5570 5575 5582 5588 5591 5597 5605 5610 5616 5625 5633 5638 5643 5648 5651 5656 5663 5666 5669 5675 5682 5687 5690 5698 5707 5710 5712 5719 5729 5735 5737 5741 5747 5749 5751 5753 5755 5759 5761 5763 5765 5766 5768 5768 5766 5771 5779 5782 5779 5776 5788 5797 5796 5799 5804 5807 5809 5810 5812 5814 5815 5817 5819 5821 5822
5438 5447 5455 5460 5463 5468 5475 5482 5489 5497 5507 5513 5516 5519 5523 5526 5527 5525 5526 5538 5550 5555 5561 5566 5572 5579 5583 5588 5595 5601 5606 5614 5621 5625 5630 5638 5642 5644 5650 5653 5655 5660 5667 5672 5676 5682 5691 5695 5696 5703 5714 5721 5724 5728 5735 5740 5743 5746 5747 5750 5754 5754 5756 5758 5759 5762 5761 5762 5770 5776 5779 5776 5771 5782 5794 5795 5799 5802 5802 5805 5806 5808 5810 5812 5815 5816 5818 5819
5437 5444 5451 5456 5460 5468 5476 5481 5488 5497 5504 5506 5509 5512 5515 5517 5517 5518 5527 5540 5546 5549 5557 5563 5569 5575 5580 5587 5594 5599 5604 5610 5615 5620 5628 5634 5636 5640 5645 5646 5649 5653 5658 5664 5670 5677 5683 5688 5694 5702 5709 5713 5717 5722 5727 5731 5735 5739 5740 5744 5747 5747 5748 5750 5752 5756 5759 5762 5767 5771 5774 5771 5768 5780 5792 5794 5798 5799 5799 5801 5803 5805 5807 5809 5812 5813 5814 5815
5436 5443 5448 5453 5459 5467 5474 5480 5488 5495 5498 5501 5505 5508 5509 5508 5509 5517 5530 5539 5542 5549 5559 5565 5569 5575 5580 5584 5588 5594 5601 5606 5612 5618 5625 5631 5633 5638 5642 5645 5650 5653 5658 5666 5672 5676 5680 5685 5690 5695 5700 5706 5711 5715 5720 5724 5728 5732 5736 5739 5742 5742 5744 5747 5751 5755 5758 5760 5762 5765 5768 5766 5766 5779 5789 5792 5796 5796 5795 5798 5800 5802 5804 5806 5808 5809 5809 5810
5435 5441 5444 5450 5458 5465 5471 5478 5485 5490 5493 5496 5498 5501 5502 5503 5511 5522 5531 5537 5543 5551 5558 5562 5567 5572 5576 5580 5585 5591 5596 5602 5608 5614 5620 5624 5626 5631 5636 5640 5646 5651 5656 5662 5666 5672 5677 5680 5684 5691 5698 5705 5710 5714 5720 5725 5728 5731 5735 5738 5739 5740 5744 5748 5751 5754 5756 5756 5755 5757 5763 5763 5766 5778 5787 5789 5793 5794 5793 5795 5798 5800 5801 5802 5803 5805 5806 5807
5430 5435 5441 5447 5453 5461 5468 5476 5482 5485 5487 5489 5493 5494 5494 5502 5514 5521 5528 5537 5543 5547 5553 5559 5563 5566 5570 5576 5582 5588 5593 5600 5606 5610 5614 5618 5621 5626 5630 5635 5641 5646 5649 5653 5658 5666 5671 5676 5686 5696 5702 5706 5711 5716 5719 5722 5722 5726 5731 5731 5732 5738 5743 5747 5749 5750 5753 5752 5748 5751 5759 5763 5766 5777 5786 5786 5789 5792 5791 5793 5795 5796 5798 5799 5800 5801 5802 5803
5426 5430 5437 5443 5449 5457 5464 5471 5476 5479 5482 5486 5487 5488 5495 5508 5517 5522 5530 5538 5541 5546 5552 5554 5556 5560 5564 5570 5575 5581 5588 5595 5600 5603 5608 5615 5620 5623 5627 5632 5639 5644 5646 5652 5658 5663 5668 5675 5684 5690 5695 5702 5708 5712 5713 5714 5717 5721 5722 5723 5730 5739 5741 5742 5743 5745 5746 5744 5742 5746 5754 5760 5762 5770 5782 5784 5785 5789 5789 5790 5793 5793 5794 5796 5796 5798 5798 5798
5421 5427 5434 5440 5447 5454 5462 5468 5471 5474 5479 5483 5484 5491 5502 5511 5516 5523 5530 5534 5538 5545 5547 5547 5551 5556 5560 5565 5569 5576 5582 5587 5593 5596 5602 5609 5613 5617 5624 5629 5635 5642 5647 5653 5657 5662 5670 5677 5681 5684 5692 5701 5706 5706 5706 5709 5713 5713 5713 5722 5733 5734 5733 5736 5737 5737 5739 5738 5739 5744 5749 5754 5756 5763 5777 5782 5782 5786 5787 5787 5789 5790 5791 5792 5793 5794 5794 5795
5419 5426 5433 5438 5446 5453 5460 5466 5469 5472 5475 5479 5484 5495 5503 5507 5513 5521 5527 5530 5535 5540 5541 5544 5550 5555 5558 5563 5569 5574 5578 5582 5587 5592 5599 5604 5607 5614 5622 5625 5632 5640 5645 5648 5652 5659 5666 5669 5671 5678 5687 5694 5696 5697 5697 5701 5706 5707 5713 5724 5726 5722 5724 5729 5728 5731 5736 5736 5738 5741 5743 5746 5750 5757 5772 5780 5781 5784 5786 5785 5786 5787 5788 5789 5790 5791 5792 5793
5418 5425 5431 5437 5445 5452 5458 5462 5466 5468 5471 5475 5482 5491 5498 5505 5513 5520 5523 5526 5531 5535 5537 5542 5547 5551 5555 5561 5568 5572 5575 5579 5585 5590 5596 5600 5607 5617 5623 5625 5631 5637 5640 5643 5648 5655 5660 5661 5664 5672 5678 5682 5684 5685 5688 5695 5701 5704 5709 5713 5713 5715 5720 5723 5725 5730 5733 5733 5734 5736 5736 5739 5744 5752 5766 5777 5780 5782 5783 5783 5784 5784 5785 5786 5787 5788 5790 5790
5416 5422 5428 5435 5443 5450 5455 5459 5462 5463 5466 5474 5484 5491 5498 5506 5511 5516 5520 5523 5527 5531 5535 5540 5544 5548 5553 5559 5564 5568 5572 5578 5584 5588 5593 5599 5608 5616 5621 5624 5629 5635 5638 5641 5645 5649 5653 5656 5660 5665 5668 5671 5673 5676 5684 5694 5700 5702 5703 5704 5707 5713 5716 5718 5722 5725 5727 5730 5731 5730 5730 5733 5740 5746 5758 5772 5776 5778 5781 5781 5781 5782 5782 5783 5784 5785 5787 5787
5415 5421 5426 5433 5440 5446 5450 5453 5455 5458 5466 5476 5485 5491 5497 5502 5507 5512 5515 5519 5524 5529 5533 5537 5542 5546 5551 5556 5560 5564 5570 5575 5579 5583 5588 5596 5603 5610 5616 5623 5629 5634 5635 5635 5639 5644 5649 5653 5657 5659 5662 5667 5673 5681 5690 5695 5698 5701 5701 5702 5707 5711 5713 5713 5714 5717 5721 5725 5727 5728 5726 5728 5734 5739 5750 5765 5772 5773 5777 5778 5778 5779 5779 5779 5780 5781 5783 5784
5414 5419 5424 5430 5437 5442 5445 5448 5452 5458 5466 5476 5484 5490 5495 5500 5504 5508 5512 5516 5520 5525 5529 5534 5539 5543 5548 5552 5556 5562 5566 5570 5575 5579 5584 5593 5600 5608 5617 5622 5627 5631 5632 5633 5638 5643 5647 5650 5653 5654 5660 5669 5674 5680 5684 5687 5692 5694 5693 5696 5702 5704 5706 5707 5709 5714 5718 5720 5724 5726 5721 5721 5728 5734 5742 5759 5768 5769 5772 5774 5774 5775 5775 5775 5776 5778 5780 5781
5412 5419 5426 5432 5437 5441 5443 5446 5450 5458 5467 5476 5483 5487 5492 5496 5501 5505 5508 5513 5517 5522 5526 5531 5536 5540 5544 5548 5553 5557 5563 5566 5571 5577 5584 5592 5600 5607 5614 5617 5620 5624 5628 5631 5634 5638 5642 5645 5648 5652 5658 5665 5668 5672 5676 5679 5683 5682 5683 5691 5694 5696 5703 5706 5710 5714 5714 5716 5721 5720 5715 5717 5725 5731 5738 5753 5764 5765 5767 5770 5770 5771 5771 5771 5773 5774 5775 5776
5411 5419 5426 5431 5437 5440 5442 5445 5450 5458 5466 5474 5478 5482 5488 5493 5498 5502 5507 5511 5516 5520 5525 5529 5533 5537 5542 5546 5549 5554 5559 5563 5568 5575 5582 5589 5596 5601 5606 5610 5613 5616 5622 5627 5631 5635 5639 5640 5643 5647 5650 5653 5656 5660 5663 5666 5670 5673 5680 5688 5690 5695 5700 5700 5704 5708 5705 5709 5715 5712 5712 5717 5722 5727 5732 5743 5758 5761 5760 5764 5766 5766 5767 5767 5768 5769 5770 5772
5410 5417 5423 5428 5433 5436 5440 5447 5455 5461 5466 5471 5476 5481 5487 5491 5495 5501 5505 5510 5515 5519 5523 5527 5531 5536 5540 5543 5547 5551 5555 5560 5567 5573 5578 5584 5590 5594 5599 5604 5608 5613 5621 5627 5631 5634 5635 5635 5638 5641 5641 5644 5649 5653 5657 5662 5669 5673 5678 5683 5687 5691 5693 5694 5699 5699 5697 5705 5709 5707 5713 5716 5717 5723 5725 5732 5749 5756 5754 5758 5761 5761 5761 5761 5762 5764 5765 5767
5408 5412 5415 5421 5427 5433 5439 5447 5455 5460 5464 5470 5475 5480 5484 5489 5493 5498 5501 5505 5510 5515 5519 5524 5528 5532 5534 5538 5543 5547 5552 5557 5563 5568 5573 5579 5585 5590 5596 5601 5605 5612 5618 5622 5626 5629 5629 5631 5633 5636 5640 5646 5651 5656 5661 5666 5669 5671 5675 5680 5683 5686 5688 5690 5691 5689 5696 5705 5703 5704 5713 5711 5711 5721 5720 5722 5739 5749 5749 5751 5754 5756 5756 5756 5756 5757 5760 5761
5407 5409 5411 5415 5420 5428 5436 5444 5451 5457 5463 5469 5474 5479 5483 5487 5491 5494 5497 5501 5507 5512 5516 5521 5524 5527 5530 5534 5539 5544 5551 5555 5559 5563 5569 5575 5582 5587 5593 5598 5603 5609 5613 5616 5619 5622 5624 5625 5628 5633 5639 5644 5647 5652 5657 5660 5663 5668 5674 5676 5679 5681 5682 5682 5681 5688 5698 5697 5692 5703 5712 5706 5709 5718 5716 5715 5728 5741 5745 5744 5746 5750 5751 5751 5752 5752 5755 5757
5404 5410 5416 5420 5423 5427 5433 5440 5448 5455 5462 5467 5473 5478 5482 5485 5488 5491 5495 5500 5505 5508 5512 5516 5520 5524 5529 5533 5537 5541 5547 5551 5555 5560 5565 5570 5577 5582 5587 5592 5598 5603 5607 5610 5613 5617 5620 5621 5626 5632 5636 5639 5643 5647 5651 5654 5659 5664 5668 5670 5673 5675 5675 5677 5680 5689 5693 5686 5690 5706 5707 5701 5708 5713 5710 5709 5714 5727 5736 5735 5736 5743 5745 5746 5748 5749 5750 5752
5403 5409 5416 5423 5429 5435 5441 5446 5450 5454 5459 5463 5468 5473 5478 5482 5487 5491 5494 5498 5502 5505 5509 5514 5519 5523 5527 5531 5534 5538 5542 5547 5553 5558 5562 5567 5572 5577 5582 5587 5592 5598 5602 5605 5609 5613 5616 5619 5624 5628 5632 5635 5638 5641 5645 5648 5652 5656 5659 5663 5667 5668 5670 5675 5679 5684 5685 5682 5691 5702 5699 5698 5706 5707 5707 5707 5705 5714 5728 5730 5730 5736 5739 5740 5742 5743 5745 5746
5405 5411 5416 5421 5428 5437 5443 5447 5450 5454 5457 5460 5464 5469 5475 5480 5485 5489 5492 5496 5500 5504 5508 5513 5519 5523 5525 5528 5532 5536 5541 5547 5553 5557 5562 5566 5569 5574 5579 5583 5589 5595 5598 5601 5605 5608 5611 5617 5621 5625 5627 5629 5632 5637 5640 5642 5645 5648 5651 5655 5658 5661 5665 5669 5673 5677 5677 5677 5688 5695 5692 5695 5703 5704 5705 5705 5702 5706 5717 5724 5725 5727 5731 5734 5734 5736 5738 5739
5407 5414 5419 5424 5429 5433 5437 5443 5448 5453 5455 5458 5464 5469 5473 5478 5482 5486 5490 5494 5499 5503 5507 5512 5517 5519 5522 5525 5530 5536 5542 5546 5550 5554 5559 5563 5567 5572 5576 5581 5586 5590 5594 5598 5602 5605 5609 5614 5618 5620 5619 5622 5629 5633 5634 5637 5641 5640 5641 5645 5649 5654 5660 5666 5672 5675 5674 5678 5686 5689 5687 5692 5700 5703 5702 5702 5702 5701 5706 5715 5717 5715 5719 5723 5724 5727 5730 5732
5406 5413 5419 5425 5430 5433 5436 5441 5445 5449 5453 5459 5466 5470 5473 5477 5481 5483 5486 5491 5495 5499 5503 5507 5511 5514 5518 5522 5528 5535 5540 5543 5546 5550 5554 5559 5564 5567 5571 5576 5581 5584 5588 5593 5597 5602 5607 5610 5613 5614 5614 5621 5627 5628 5630 5633 5630 5627 5632 5641 5647 5654 5662 5666 5669 5672 5672 5675 5680 5681 5684 5690 5695 5697 5697 5697 5698 5697 5699 5706 5707 5706 5711 5714 5717 5721 5723 5724